CZ-6A DEB, 61421

Orbit data source: Space-Track

CZ-6A DEB, 61421 is space debris in LEO originally from a launch on Tue, 06 Aug 2024 UTC launched from the Taiyaun Space Center, China (TSC). Debris objects in space refer to the collection of defunct objects orbiting the Earth. Examples of debris include non-operational satellites, rocket bodies, and fragments generated from explosions, collisions, or faulty payload assembly.

Loading next visibility...
Identifier
61421, 2024-140YN
Orbit
LEO
Country
Flag of CNCN / PRC
Related business
Manufacturer
SAST
Mission
Spacecraft
Bus & Motor
Unknown
Mass
Unknown
Launch date (UTC)
2024-08-06 (2 years ago)
Launch vehicle
Unknown
Launch site
Taiyaun Space Center, China (TSC)
Object type
Payload
Rocket body
Debris
Shape & HBR
Unknown shape, 0.1 m
Radar Cross Section
Medium (>0.1 m² and <1 m²)

Expand to show TLE details & history
Last TLE update: 12 hours ago

TLE from 12 hours ago
0 CZ-6A DEB
1 61421U 24140YN  26171.34329480  .00001752  00000-0  82097-3 0  9999
2 61421  89.1472 286.3651 0066320 195.3745 164.5431 14.18666380 91927
Epoch: 2026-06-20T08:14Z
TLE epoch observation values (Epoch: 2026-06-20T08:14:20.670Z)
Latitude
-0.00007°
Longitude
-105.78031°
Altitude
879.025 km
Speed
7.389 km/s
True Right ascension
19h 05m 27s
True Declination
0° 00' 00"
Sunlit
Object was in full shadow at epoch
Visualization orbit readout
Latitude
Unknown
Longitude
Unknown
Altitude
Unknown
Speed
Unknown
Apparent Right ascension
Unknown
Apparent Declination
Unknown
Sunlit
N/A
Visualization observer readout
Local Sidereal Time
07:24:29
Azimuth
Unknown
Elevation
Unknown
Doppler factor
Unknown
Orbital elements
Apogee altitude
874.602 km
Perigee altitude
779.035 km
Semi-major axis
7,204.956 km
Eccentricity
0.00663
Inclination
89.1472°
RAAN
286.3651°
Arg. of periapsis
195.3745°
True anomaly
164.74404°
Mean anomaly
164.5431°
Eccentric anomaly
164.64373°
Mean motion
3.54892 °/min
Orbital period
101.44 mins
BSTAR
0.00082097
Loading maneuver chart data...
Computing Atmospheric mass density...
Loading historical data...
Loading historical data...
Loading historical data...
Loading historical data...
Loading historical data...
Loading historical data...
Loading historical data...

Documentation

Showing up to 5 results
|